• In Belarus
  • List of Countries
  • For 7 days
  • Water Temperature
  • Satellite Maps
  • Weather Map
  • Weather Widgets
  • user-avatar
    Login

    Hourly Weather Perth

    Today, 23 June, Friday

    Time Temperature Precipitation Wind Pressure Humidity
    00:00 +12°C° 0.5 mm 7 mps 758 mmHg 92%
    01:00 +13°C° 0.5 mm 6 mps 758 mmHg 92%
    02:00 +12°C° 0 mm 7 mps 759 mmHg 92%
    03:00 +12°C° 0.3 mm 7 mps 759 mmHg 92%
    04:00 +12°C° 0.3 mm 7 mps 759 mmHg 92%
    05:00 +12°C° 0.3 mm 7 mps 759 mmHg 91%
    06:00 +12°C° 0.2 mm 7 mps 760 mmHg 91%
    07:00 +12°C° 0.2 mm 7 mps 761 mmHg 90%
    08:00 +14°C° 0 mm 6 mps 761 mmHg 90%
    09:00 +14°C° 0.1 mm 6 mps 762 mmHg 87%
    10:00 +15°C° 0.1 mm 6 mps 762 mmHg 84%
    11:00 +15°C° 0.1 mm 6 mps 763 mmHg 82%
    12:00 +16°C° 0.1 mm 6 mps 762 mmHg 76%
    13:00 +17°C° 0.1 mm 6 mps 762 mmHg 71%
    14:00 +19°C° 0.1 mm 6 mps 762 mmHg 66%
    15:00 +17°C° 0 mm 6 mps 762 mmHg 68%
    16:00 +17°C° 0 mm 6 mps 763 mmHg 71%
    17:00 +16°C° 0 mm 6 mps 763 mmHg 73%
    18:00 +15°C° 0 mm 6 mps 763 mmHg 76%
    19:00 +15°C° 0 mm 6 mps 764 mmHg 78%
    20:00 +14°C° 0 mm 7 mps 765 mmHg 80%
    21:00 +14°C° 0 mm 6 mps 765 mmHg 81%
    22:00 +13°C° 0 mm 6 mps 765 mmHg 82%
    23:00 +13°C° 0 mm 6 mps 765 mmHg 82%

    Tomorrow, 24 June, Saturday

    Time Temperature Precipitation Wind Pressure Humidity
    00:00 +13°C° 0 mm 6 mps 766 mmHg 82%
    01:00 +13°C° 0 mm 6 mps 766 mmHg 82%
    02:00 +13°C° 0 mm 6 mps 766 mmHg 81%
    03:00 +11°C° 0 mm 6 mps 766 mmHg 82%
    04:00 +12°C° 0 mm 5 mps 766 mmHg 83%
    05:00 +12°C° 0 mm 5 mps 766 mmHg 83%
    06:00 +12°C° 0 mm 5 mps 766 mmHg 83%
    07:00 +12°C° 0 mm 5 mps 766 mmHg 83%
    08:00 +10°C° 0 mm 5 mps 767 mmHg 82%
    09:00 +13°C° 0 mm 5 mps 767 mmHg 76%
    10:00 +14°C° 0 mm 5 mps 767 mmHg 70%
    11:00 +16°C° 0 mm 5 mps 767 mmHg 64%
    12:00 +16°C° 0 mm 5 mps 766 mmHg 61%
    13:00 +18°C° 0 mm 4 mps 766 mmHg 58%
    14:00 +19°C° 0 mm 4 mps 765 mmHg 55%
    15:00 +18°C° 0 mm 4 mps 765 mmHg 58%
    16:00 +17°C° 0 mm 4 mps 765 mmHg 61%
    17:00 +15°C° 0 mm 4 mps 766 mmHg 65%
    18:00 +14°C° 0 mm 4 mps 766 mmHg 69%
    19:00 +13°C° 0 mm 4 mps 767 mmHg 72%
    20:00 +12°C° 0 mm 4 mps 767 mmHg 76%
    21:00 +11°C° 0 mm 4 mps 767 mmHg 79%
    22:00 +11°C° 0 mm 4 mps 768 mmHg 82%
    23:00 +11°C° 0 mm 4 mps 768 mmHg 85%

    Day after tomorrow, 25 June, Sunday

    Time Temperature Precipitation Wind Pressure Humidity
    00:00 +10°C° 0 mm 4 mps 768 mmHg 86%
    01:00 +10°C° 0 mm 4 mps 768 mmHg 88%
    02:00 +10°C° 0 mm 4 mps 768 mmHg 90%
    03:00 +8°C° 0 mm 4 mps 768 mmHg 90%
    04:00 +8°C° 0 mm 4 mps 768 mmHg 90%
    05:00 +8°C° 0 mm 4 mps 768 mmHg 90%
    06:00 +8°C° 0 mm 4 mps 768 mmHg 89%
    07:00 +8°C° 0 mm 4 mps 769 mmHg 88%
    08:00 +8°C° 0 mm 4 mps 769 mmHg 87%
    09:00 +11°C° 0 mm 4 mps 769 mmHg 77%
    10:00 +13°C° 0 mm 4 mps 769 mmHg 67%
    11:00 +14°C° 0 mm 4 mps 769 mmHg 58%
    12:00 +16°C° 0 mm 3 mps 768 mmHg 55%
    13:00 +17°C° 0 mm 3 mps 768 mmHg 52%
    14:00 +17°C° 0 mm 3 mps 767 mmHg 48%
    15:00 +16°C° 0 mm 3 mps 767 mmHg 53%
    16:00 +14°C° 0 mm 3 mps 767 mmHg 57%
    17:00 +13°C° 0 mm 3 mps 767 mmHg 61%
    18:00 +12°C° 0 mm 3 mps 768 mmHg 65%
    19:00 +11°C° 0 mm 3 mps 768 mmHg 70%
    20:00 +10°C° 0 mm 3 mps 769 mmHg 74%
    21:00 +9°C° 0 mm 3 mps 769 mmHg 75%
    22:00 +9°C° 0 mm 3 mps 769 mmHg 77%
    23:00 +8°C° 0 mm 2 mps 769 mmHg 78%

    26 June, Monday

    Time Temperature Precipitation Wind Pressure Humidity
    00:00 +8°C° 0 mm 2 mps 769 mmHg 79%
    01:00 +8°C° 0 mm 2 mps 769 mmHg 80%
    02:00 +8°C° 0 mm 2 mps 769 mmHg 80%
    03:00 +7°C° 0 mm 2 mps 769 mmHg 81%
    04:00 +7°C° 0 mm 2 mps 768 mmHg 82%
    05:00 +7°C° 0 mm 2 mps 768 mmHg 82%
    06:00 +7°C° 0 mm 2 mps 769 mmHg 81%
    07:00 +8°C° 0 mm 2 mps 769 mmHg 80%
    08:00 +8°C° 0 mm 2 mps 769 mmHg 79%
    09:00 +10°C° 0 mm 2 mps 769 mmHg 69%
    10:00 +14°C° 0 mm 1 mps 769 mmHg 58%
    11:00 +18°C° 0 mm 1 mps 769 mmHg 48%
    12:00 +18°C° 0 mm 1 mps 769 mmHg 47%
    13:00 +18°C° 0 mm 1 mps 768 mmHg 46%
    14:00 +19°C° 0 mm 1 mps 767 mmHg 45%
    15:00 +18°C° 0 mm 1 mps 767 mmHg 51%
    16:00 +16°C° 0 mm 1 mps 767 mmHg 57%
    17:00 +14°C° 0 mm 1 mps 767 mmHg 63%
    18:00 +13°C° 0 mm 1 mps 768 mmHg 69%
    19:00 +12°C° 0 mm 1 mps 768 mmHg 76%
    20:00 +11°C° 0 mm 1 mps 769 mmHg 82%
    21:00 +10°C° 0.2 mm 2 mps 769 mmHg 84%
    22:00 +10°C° 0.2 mm 2 mps 769 mmHg 86%
    23:00 +12°C° 0.2 mm 2 mps 769 mmHg 88%

    27 June, Tuesday

    Time Temperature Precipitation Wind Pressure Humidity
    00:00 +10°C° 0.3 mm 2 mps 769 mmHg 90%
    01:00 +10°C° 0.3 mm 2 mps 769 mmHg 92%
    02:00 +10°C° 0.3 mm 3 mps 769 mmHg 95%
    03:00 +9°C° 0 mm 2 mps 769 mmHg 95%
    04:00 +8°C° 0 mm 2 mps 769 mmHg 96%
    05:00 +8°C° 0 mm 2 mps 769 mmHg 96%
    06:00 +8°C° 0 mm 2 mps 769 mmHg 96%
    07:00 +8°C° 0 mm 2 mps 770 mmHg 96%
    08:00 +8°C° 0 mm 2 mps 770 mmHg 96%
    09:00 +10°C° 0 mm 2 mps 770 mmHg 88%
    10:00 +13°C° 0 mm 2 mps 770 mmHg 80%
    11:00 +15°C° 0 mm 2 mps 771 mmHg 73%
    12:00 +16°C° 0 mm 2 mps 770 mmHg 64%
    13:00 +17°C° 0 mm 2 mps 770 mmHg 56%
    14:00 +18°C° 0 mm 2 mps 769 mmHg 47%
    15:00 +17°C° 0 mm 2 mps 769 mmHg 53%
    16:00 +16°C° 0 mm 2 mps 770 mmHg 58%
    17:00 +14°C° 0 mm 2 mps 770 mmHg 63%
    18:00 +13°C° 0 mm 2 mps 770 mmHg 66%
    19:00 +12°C° 0 mm 2 mps 771 mmHg 70%
    20:00 +10°C° 0 mm 2 mps 771 mmHg 73%
    21:00 +10°C° 0 mm 2 mps 772 mmHg 74%
    22:00 +10°C° 0 mm 2 mps 772 mmHg 75%
    23:00 +9°C° 0 mm 2 mps 772 mmHg 76%

    28 June, Wednesday

    Time Temperature Precipitation Wind Pressure Humidity
    00:00 +9°C° 0 mm 3 mps 772 mmHg 76%
    01:00 +9°C° 0 mm 3 mps 772 mmHg 77%
    02:00 +9°C° 0 mm 3 mps 772 mmHg 77%
    03:00 +8°C° 0 mm 3 mps 772 mmHg 78%
    04:00 +8°C° 0 mm 3 mps 772 mmHg 79%
    05:00 +8°C° 0 mm 3 mps 772 mmHg 80%
    06:00 +8°C° 0 mm 3 mps 773 mmHg 82%
    07:00 +8°C° 0 mm 3 mps 773 mmHg 83%
    08:00 +8°C° 0 mm 4 mps 773 mmHg 85%
    09:00 +11°C° 0 mm 4 mps 773 mmHg 77%
    10:00 +13°C° 0 mm 4 mps 773 mmHg 70%
    11:00 +15°C° 0 mm 4 mps 773 mmHg 62%
    12:00 +17°C° 0 mm 3 mps 773 mmHg 58%
    13:00 +18°C° 0 mm 3 mps 772 mmHg 55%
    14:00 +19°C° 0 mm 3 mps 771 mmHg 51%
    15:00 +18°C° 0 mm 3 mps 771 mmHg 56%
    16:00 +16°C° 0 mm 2 mps 771 mmHg 60%
    17:00 +15°C° 0 mm 2 mps 771 mmHg 65%
    18:00 +13°C° 0 mm 3 mps 772 mmHg 67%
    19:00 +12°C° 0 mm 3 mps 772 mmHg 70%
    20:00 +10°C° 0 mm 3 mps 772 mmHg 72%
    21:00 +10°C° 0 mm 3 mps 772 mmHg 73%
    22:00 +10°C° 0 mm 3 mps 773 mmHg 74%
    23:00 +8°C° 0 mm 4 mps 773 mmHg 74%
    Show more